Regional Weather Roundup
Issued by NWS

Home | Current Version | Previous Version | Graphics & Text | Print | Product List | Glossary On
Versions: 1 2 3 4 5 6 7 8 9 10 11 12 13 14 15 16 17 18 19 20 21 22 23 24 25 26 27 28 29 30 31 32 33 34 35 36 37 38 39 40 41 42 43 44 45 46 47 48 49 50
517
ASUS43 KLOT 211004
RWRIL

ILLINOIS REGIONAL WEATHER ROUNDUP
NATIONAL WEATHER SERVICE CHICAGO/ROMEOVILLE IL
500 AM CDT FRI JUL 21 2017

NOTE: "FAIR" INDICATES FEW OR NO CLOUDS BELOW 12,000 FEET WITH NO
SIGNIFICANT WEATHER AND/OR OBSTRUCTIONS TO VISIBILITY.

* THESE STATIONS ARE NOT UNDER NWS QUALITY CONTROL. THEY ALSO MAY NOT
  REPORT WEATHER SUCH AS PRECIPITATION OR FOG.

ILZ001-002-007-009-015-016-024-211100-
NORTHWEST ILLINOIS

CITY           SKY/WX    TMP DP  RH WIND       PRES   REMARKS
MOLINE         LGT RAIN  73  70  90 SE6       29.96R
STERLING*      RAIN      71  70  96 SW5       30.00R
SAVANNA*       CLOUDY    71  71  98 CALM      29.97F
$$

ILZ003-004-008-010-011-017-018-211100-
NORTH CENTRAL ILLINOIS

CITY           SKY/WX    TMP DP  RH WIND       PRES   REMARKS
ROCKFORD       CLOUDY    75  72  90 NE5       30.00F
FREEPORT*      CLOUDY    71  71  99 CALM      30.01S
ROCHELLE*      CLOUDY    72  71  98 CALM      30.00F
DE KALB*       CLOUDY    70  69  97 NE3       30.01F
PERU*          LGT RAIN  71  69  95 CALM      29.99F
$$

ILZ005-006-012>014-019>023-211100-
NORTHEAST ILLINOIS

CITY           SKY/WX    TMP DP  RH WIND       PRES   REMARKS
CHICAGO-OHARE  CLOUDY    75  69  81 W7        29.99R
CHICAGO-MIDWAY CLOUDY    75  71  87 W5        29.99R
AURORA         CLOUDY    70  70 100 NW7       30.01R
LANSING*       CLOUDY    71  69  92 SW3       29.99R
JOLIET*        CLOUDY    73  73  99 CALM      30.00R FOG
WAUKEGAN       PTCLDY    68  68 100 S6        29.99R
DUPAGE AIRPORT CLOUDY    72  70  93 W8        30.01R
WHEELING       CLOUDY    74  72  93 CALM      30.01R
MORRIS*        CLOUDY    72  71  97 CALM      29.98S FOG
ROMEOVILLE*    CLOUDY    71  69  94 NW3       30.01R FOG
NORTHERLY ISL    N/A     74  68  81 CALM        N/A
$$

LMZ740>746-211100-
SOUTHERN LAKE MICHIGAN

STATION/POSITION SKY/WX   TEMP    WIND        PRES    VSBY  WAVE
                          AIR SEA DIR/SP/G                  HT/PER
                          (F)     (DEG/KT/KT) (MB)    (MI)  (FT/S)
SOUTHERN BUOY              71 70  310/  6/  6 1015.2          0
WILMETTE HARBOR            72 72   30/  2/  2   N/A           0
HARRISON CRIB              76     160/  3/  4   N/A
BURNHAM HARBOR             74                   N/A
CALUMET HARBOR             75     250/  1/  2 1014.6R
BURNS HARBOR               76     140/  2/  6 1015.6F
MICHIGAN CITY              73     130/  5/  6   N/A
MICHIGAN CITY 6N           74 74  130/  6/  6   N/A           1
ST. JOSEPH                 73 74  250/  6/ 10 1015.5R         0
$$

ILZ025>027-034>036-040-047-049-050-058-095>099-211100-
WEST-CENTRAL ILLINOIS

CITY           SKY/WX    TMP DP  RH WIND       PRES   REMARKS
QUINCY         CLOUDY    78  74  87 N3        29.97R HX  81
GALESBURG*     CLOUDY    74  70  88 E3        29.99R
MACOMB*        MOCLDY    76  73  88 NE6       29.99R
JACKSONVILLE*  CLOUDY    76  73  91 CALM      29.96S
PITTSFIELD*    PTCLDY    78  74  89 CALM      29.99R
$$

ILZ028>032-037-038-041>044-048-051>054-059>061-211100-
CENTRAL ILLINOIS

CITY           SKY/WX    TMP DP  RH WIND       PRES   REMARKS
PONTIAC        RAIN      73  73  98 E6        29.98F
BLOOMINGTON    CLOUDY    75  71  87 N7        30.01R
DECATUR        CLOUDY    79  73  82 MISG      29.99R HX  82
PEORIA         CLOUDY    76  70  82 NE12      29.98S
LACON*         LGT RAIN  73  73 100 CALM      29.97F
LINCOLN*       CLOUDY    77  77 100 CALM      29.97R
SPRINGFIELD    CLOUDY    77  75  93 CALM      29.97R
TAYLORVILLE    CLOUDY    74  73  98 CALM      29.98R
$$

ILZ033-039-045-046-055>057-062-063-211100-
EAST-CENTRAL ILLINOIS

CITY           SKY/WX    TMP DP  RH WIND       PRES   REMARKS
RANTOUL*       CLOUDY    74  71  91 E6        30.01R
MATTOON        MOCLDY    79  76  90 W3        29.98R HX  83
PARIS*         CLOUDY    76  72  86 NE9       30.02R
$$

ILZ079-100>102-211100-
SOUTHWEST ILLINOIS

CITY           SKY/WX    TMP DP  RH WIND       PRES   REMARKS
ALTON          CLEAR     74  74 100 CALM      29.97S
BELLEVILLE     CLEAR     76  74  94 CALM      29.98S
CAHOKIA*       CLEAR     79  73  82 S3        29.96S HX  82
SPARTA*        CLEAR     79  75  87 S5        29.99S HX  83
$$

ILZ064>066-069>071-074>076-080>082-084>086-088>090-092>094-211100-
SOUTH-CENTRAL ILLINOIS

CITY           SKY/WX    TMP DP  RH WIND       PRES   REMARKS
CARBONDALE     CLEAR     75  75 100 S3        29.98R
CAIRO*         CLEAR     78  76  94 CALM      29.99S
EFFINGHAM*     PTCLDY    76  76  99 CALM      30.00R
MARION         CLEAR     79  77  94 S5        29.99S HX  83
MT. VERNON     PTCLDY    76  74  93 CALM      29.98S
CENTRALIA*     CLOUDY    77  76  96 CALM      29.97S
SALEM*         MOCLDY    78  74  90 CALM      29.98S
METROPOLIS*    CLEAR     75  74  98 CALM      30.01R FOG
$$

ILZ067-068-072-073-078-083-087-091-211100-
SOUTHEAST ILLINOIS

CITY           SKY/WX    TMP DP  RH WIND       PRES   REMARKS
LAWRENCEVILLE  MOCLDY    76  74  93 CALM      29.98S
FLORA*         CLOUDY    76  74  94 SW5       29.97S
FAIRFIELD*     MOCLDY    75  74  97 CALM      29.97R
HARRISBURG*    CLEAR     74  74  99 CALM      29.99S FOG
ROBINSON*      MOCLDY    74  73  95 CALM      29.99R
CARMI*         CLOUDY    73  73 100 CALM      29.97S FOG
$$

ABBREVIATIONS USED IN REMARKS
   TC - TEMPERATURE IN CELSIUS
  WCI - WIND CHILL INDEX
   HX - HEAT INDEX
  VSB - VISIBILITY
$$





USA.gov is the U.S. government's official web portal to all federal, state and local government web resources and services.